EN

Hourly Weather Abertridwr

Today, 19 June, Saturday

Time Temperature Precipitation Wind Pressure Humidity
00:00 +13°C° 0 mm 1 mps 750 mmHg 92%
01:00 +12°C° 0 mm 1 mps 750 mmHg 92%
02:00 +12°C° 0 mm 1 mps 750 mmHg 92%
03:00 +12°C° 0 mm 1 mps 750 mmHg 92%
04:00 +12°C° 0 mm 1 mps 749 mmHg 92%
05:00 +12°C° 0 mm 1 mps 749 mmHg 91%
06:00 +12°C° 0 mm 2 mps 749 mmHg 91%
07:00 +13°C° 0 mm 2 mps 749 mmHg 88%
08:00 +14°C° 0 mm 2 mps 749 mmHg 85%
09:00 +15°C° 0 mm 2 mps 749 mmHg 82%
10:00 +15°C° 0 mm 2 mps 749 mmHg 81%
11:00 +14°C° 0 mm 3 mps 749 mmHg 81%
12:00 +14°C° 0 mm 3 mps 748 mmHg 81%
13:00 +16°C° 0.1 mm 3 mps 748 mmHg 81%
14:00 +15°C° 0.1 mm 4 mps 747 mmHg 80%
15:00 +15°C° 0.1 mm 4 mps 747 mmHg 80%
16:00 +15°C° 0.1 mm 4 mps 746 mmHg 81%
17:00 +16°C° 0.1 mm 3 mps 746 mmHg 83%
18:00 +16°C° 0.1 mm 3 mps 745 mmHg 84%
19:00 +15°C° 0.1 mm 2 mps 745 mmHg 87%
20:00 +15°C° 0.1 mm 2 mps 745 mmHg 89%
21:00 +14°C° 0.1 mm 2 mps 745 mmHg 91%
22:00 +14°C° 0.1 mm 2 mps 745 mmHg 93%
23:00 +14°C° 0.1 mm 2 mps 744 mmHg 95%

Tomorrow, 20 June, Sunday

Time Temperature Precipitation Wind Pressure Humidity
00:00 +14°C° 0.1 mm 2 mps 744 mmHg 96%
01:00 +14°C° 0 mm 2 mps 744 mmHg 97%
02:00 +13°C° 0 mm 3 mps 743 mmHg 97%
03:00 +13°C° 0 mm 3 mps 743 mmHg 98%
04:00 +13°C° 0.1 mm 3 mps 743 mmHg 98%
05:00 +12°C° 0.1 mm 3 mps 743 mmHg 98%
06:00 +12°C° 0.1 mm 3 mps 743 mmHg 97%
07:00 +12°C° 0.1 mm 3 mps 743 mmHg 97%
08:00 +13°C° 0.1 mm 3 mps 743 mmHg 97%
09:00 +13°C° 0.1 mm 3 mps 744 mmHg 96%
10:00 +13°C° 0.1 mm 3 mps 744 mmHg 96%
11:00 +13°C° 0.1 mm 3 mps 744 mmHg 95%
12:00 +14°C° 0.1 mm 3 mps 744 mmHg 95%
13:00 +14°C° 0.1 mm 3 mps 744 mmHg 93%
14:00 +16°C° 0.1 mm 3 mps 744 mmHg 92%
15:00 +16°C° 0.1 mm 3 mps 744 mmHg 90%
16:00 +16°C° 0.1 mm 3 mps 744 mmHg 91%
17:00 +16°C° 0.1 mm 3 mps 744 mmHg 92%
18:00 +15°C° 0.1 mm 4 mps 744 mmHg 93%
19:00 +14°C° 0.1 mm 4 mps 744 mmHg 94%
20:00 +14°C° 0.1 mm 4 mps 744 mmHg 95%
21:00 +13°C° 0.1 mm 5 mps 744 mmHg 95%
22:00 +13°C° 0 mm 5 mps 744 mmHg 95%
23:00 +13°C° 0 mm 5 mps 744 mmHg 95%

Day after tomorrow, 21 June, Monday

Time Temperature Precipitation Wind Pressure Humidity
00:00 +12°C° 0 mm 5 mps 744 mmHg 96%
01:00 +12°C° 0.1 mm 5 mps 744 mmHg 96%
02:00 +12°C° 0.1 mm 5 mps 744 mmHg 96%
03:00 +12°C° 0.1 mm 5 mps 744 mmHg 96%
04:00 +12°C° 0.1 mm 5 mps 745 mmHg 95%
05:00 +10°C° 0.1 mm 6 mps 745 mmHg 95%
06:00 +10°C° 0.1 mm 6 mps 745 mmHg 95%
07:00 +10°C° 0.2 mm 7 mps 745 mmHg 94%
08:00 +10°C° 0.2 mm 7 mps 745 mmHg 94%
09:00 +10°C° 0.2 mm 7 mps 745 mmHg 93%
10:00 +10°C° 1.3 mm 8 mps 745 mmHg 94%
11:00 +10°C° 1.3 mm 8 mps 746 mmHg 94%
12:00 +10°C° 1.3 mm 8 mps 746 mmHg 95%
13:00 +10°C° 1.7 mm 8 mps 746 mmHg 95%
14:00 +10°C° 1.7 mm 9 mps 746 mmHg 95%
15:00 +8°C° 1.7 mm 9 mps 747 mmHg 94%
16:00 +8°C° 0.7 mm 9 mps 747 mmHg 94%
17:00 +8°C° 0.7 mm 10 mps 747 mmHg 94%
18:00 +9°C° 0.7 mm 10 mps 748 mmHg 94%
19:00 +8°C° 0.4 mm 9 mps 748 mmHg 93%
20:00 +8°C° 0.4 mm 9 mps 748 mmHg 93%
21:00 +8°C° 0.4 mm 9 mps 749 mmHg 93%
22:00 +8°C° 0.2 mm 9 mps 749 mmHg 93%
23:00 +8°C° 0.2 mm 9 mps 749 mmHg 93%

22 June, Tuesday

Time Temperature Precipitation Wind Pressure Humidity
00:00 +9°C° 0.2 mm 8 mps 750 mmHg 93%
01:00 +9°C° 0.2 mm 8 mps 750 mmHg 93%
02:00 +9°C° 0.2 mm 8 mps 750 mmHg 93%
03:00 +9°C° 0.2 mm 8 mps 750 mmHg 93%
04:00 +9°C° 0.2 mm 8 mps 751 mmHg 93%
05:00 +7°C° 0.2 mm 8 mps 751 mmHg 93%
06:00 +7°C° 0.2 mm 8 mps 751 mmHg 92%
07:00 +9°C° 0 mm 8 mps 752 mmHg 90%
08:00 +9°C° 0 mm 8 mps 752 mmHg 88%
09:00 +10°C° 0 mm 8 mps 752 mmHg 86%
10:00 +10°C° 0 mm 8 mps 753 mmHg 84%
11:00 +10°C° 0 mm 7 mps 753 mmHg 83%
12:00 +10°C° 0 mm 7 mps 753 mmHg 82%
13:00 +10°C° 0 mm 6 mps 753 mmHg 81%
14:00 +11°C° 0 mm 6 mps 753 mmHg 81%
15:00 +12°C° 0 mm 5 mps 753 mmHg 80%
16:00 +12°C° 0 mm 5 mps 754 mmHg 80%
17:00 +13°C° 0 mm 5 mps 754 mmHg 79%
18:00 +13°C° 0 mm 5 mps 754 mmHg 78%
19:00 +12°C° 0 mm 4 mps 754 mmHg 79%
20:00 +12°C° 0 mm 4 mps 754 mmHg 80%
21:00 +12°C° 0 mm 3 mps 755 mmHg 80%
22:00 +11°C° 0 mm 4 mps 755 mmHg 80%
23:00 +11°C° 0 mm 4 mps 755 mmHg 80%

23 June, Wednesday

Time Temperature Precipitation Wind Pressure Humidity
00:00 +10°C° 0 mm 5 mps 755 mmHg 80%
01:00 +10°C° 0 mm 4 mps 755 mmHg 81%
02:00 +8°C° 0 mm 4 mps 755 mmHg 83%
03:00 +8°C° 0 mm 4 mps 755 mmHg 85%
04:00 +8°C° 0 mm 4 mps 755 mmHg 84%
05:00 +8°C° 0 mm 4 mps 755 mmHg 84%
06:00 +10°C° 0 mm 4 mps 755 mmHg 83%
07:00 +11°C° 0 mm 4 mps 755 mmHg 77%
08:00 +12°C° 0 mm 4 mps 755 mmHg 71%
09:00 +13°C° 0 mm 4 mps 755 mmHg 65%
10:00 +14°C° 0 mm 4 mps 755 mmHg 61%
11:00 +15°C° 0 mm 4 mps 755 mmHg 58%
12:00 +17°C° 0 mm 4 mps 755 mmHg 54%
13:00 +18°C° 0 mm 3 mps 755 mmHg 54%
14:00 +18°C° 0 mm 3 mps 755 mmHg 54%
15:00 +19°C° 0 mm 3 mps 755 mmHg 53%
16:00 +18°C° 0 mm 2 mps 755 mmHg 58%
17:00 +18°C° 0 mm 2 mps 755 mmHg 63%
18:00 +18°C° 0 mm 2 mps 754 mmHg 68%
19:00 +16°C° 0 mm 2 mps 755 mmHg 72%
20:00 +14°C° 0 mm 2 mps 755 mmHg 76%
21:00 +12°C° 0 mm 2 mps 755 mmHg 80%
22:00 +12°C° 0 mm 2 mps 755 mmHg 81%
23:00 +10°C° 0 mm 2 mps 755 mmHg 81%

24 June, Thursday

Time Temperature Precipitation Wind Pressure Humidity
00:00 +11°C° 0 mm 1 mps 755 mmHg 82%
01:00 +11°C° 0 mm 1 mps 755 mmHg 82%
02:00 +11°C° 0 mm 1 mps 755 mmHg 83%
03:00 +10°C° 0 mm 1 mps 754 mmHg 83%
04:00 +11°C° 0 mm 1 mps 754 mmHg 82%
05:00 +12°C° 0 mm 1 mps 754 mmHg 80%
06:00 +13°C° 0 mm 1 mps 754 mmHg 79%
07:00 +14°C° 0 mm 1 mps 754 mmHg 75%
08:00 +16°C° 0 mm 2 mps 754 mmHg 70%
09:00 +17°C° 0 mm 3 mps 754 mmHg 66%
10:00 +18°C° 0 mm 3 mps 754 mmHg 66%
11:00 +18°C° 0 mm 3 mps 753 mmHg 66%
12:00 +19°C° 0 mm 4 mps 753 mmHg 66%
13:00 +19°C° 0 mm 4 mps 753 mmHg 68%
14:00 +17°C° 0 mm 5 mps 753 mmHg 71%
15:00 +17°C° 0 mm 5 mps 752 mmHg 74%
16:00 +16°C° 0 mm 5 mps 752 mmHg 75%
17:00 +16°C° 0 mm 5 mps 752 mmHg 76%
18:00 +15°C° 0 mm 5 mps 752 mmHg 77%
19:00 +14°C° 0 mm 4 mps 752 mmHg 82%
20:00 +12°C° 0 mm 3 mps 752 mmHg 87%
21:00 +11°C° 0 mm 3 mps 752 mmHg 92%
22:00 +12°C° 0 mm 2 mps 751 mmHg 92%
23:00 +12°C° 0 mm 2 mps 751 mmHg 92%
Show more